Regional Weather Roundup
Issued by NWS Grand Forks, ND

Home | Current Version | Previous Version | Graphics & Text | Print | Product List | Glossary On
Versions: 1 2 3 4 5 6 7 8 9 10 11 12 13 14 15 16 17 18 19 20 21 22 23 24 25 26 27 28 29 30 31 32 33 34 35 36 37 38 39 40 41 42 43 44 45 46 47 48 49 50
000
ASUS43 KFGF 260231
RWRFGF
PRAIRIE TO PINES  WEATHER ROUNDUP
NATIONAL WEATHER SERVICE EASTERN NORTH DAKOTA/GRAND FORKS ND
900 PM CDT WED MAY 25 2016

 **SATELLITE DATA USED TO AUGMENT SKY COVER AT AUTOMATED STATIONS**
 *****  WEATHER ACROSS EASTERN NORTH DAKOTA  *****

CITY           SKY/WX    TMP DP  RH WIND       PRES   REMARKS
GRAND FORKS    CLOUDY    60  58  92 NW13      29.66R
GRAND FRKS AFB CLOUDY    57  57 100 NW10      29.68R
GRAND FRKS NWS   N/A     57 N/A N/A W6          N/A
DEVILS LAKE    CLOUDY    59  55  87 E6        29.76R
FARGO          CLEAR     64  57  78 SW8       29.73R
WAHPETON ARPT  PTCLDY    63  57  82 CALM      29.74S
$$

 ***** WEATHER ACROSS CENTRAL AND WESTERN NORTH DAKOTA  *****

CITY           SKY/WX    TMP DP  RH WIND       PRES   REMARKS
BISMARCK       CLOUDY    60  54  80 W15       29.78R
MINOT          CLOUDY    60  55  83 S6        29.75R
JAMESTOWN      LGT RAIN  60  57  89 W5        29.74F
MINOT AFB      CLOUDY    59  57  94 SE5       29.74R
GARRISON         N/A     59  53  80 NE3       29.77S
WILLISTON      PTCLDY    56  49  77 NW6       29.82R
DICKINSON      CLEAR     54  42  64 NW9       29.81S
HETTINGER      CLEAR     56  43  61 NW8       29.84S
$$

 *****  OTHER AIRPORT OBSERVATIONS IN OUR AREA  *****

CITY           SKY/WX    TMP DP  RH WIND       PRES   REMARKS
WALHALLA       RAIN      55  55 100 N13       29.74F
GRAFTON AIRPOR CLOUDY    59  59 100 N7        29.69S FOG
VALLEY CITY AR FAIR      57  57 100 CALM      29.75F
CANDO          CLOUDY    57  57 100 E10       29.78S
CAVALIER APRT  LGT RAIN  57  57 100 N12       29.70F VSB 3/4
GWINNER        MOCLDY    64  61  88 E7        29.73F
ROLLA          CLOUDY    55  55 100 E8        29.78S
 ***** THE ABOVE OBSERVATIONS ARE NON NWS ARE NOT QUALITY
       CONTROLLED AND MAY MIS-REPORT RAIN FOR SNOW...
$$

  *****  WEATHER ACROSS NORTHERN MINNESOTA  *****

CITY           SKY/WX    TMP DP  RH WIND       PRES   REMARKS
FLAG ISLAND    RAIN      59  57  94 E13G23    29.79F
WARROAD        RAIN      57  54  88 E21G30    29.73F
ROSEAU         LGT RAIN  59  54  82 E14       29.70F
HALLOCK        CLOUDY    59  57  94 E12       29.66F
THF RVR FALLS  CLOUDY    61  55  82 S17       29.69R
BAUDETTE       LGT RAIN  58  56  93 E15       29.76S
WASKISH        CLOUDY    59  55  88 SE13G18   29.76S
CROOKSTON      MOCLDY    61  61 100 SW15      29.69R
STEPHEN NDAWN    N/A     61  59  94 E8          N/A
GREENBUSH NDAW   N/A     59  57  94 E10         N/A
$$
  *****  WEATHER ACROSS CENTRAL AND WEST MINNESOTA  *****

CITY           SKY/WX    TMP DP  RH WIND       PRES   REMARKS
FOSSTON        CLEAR     61  57  88 S14       29.74R
BEMIDJI        CLOUDY    59  55  88 SE16      29.76S
PARK RAPIDS    PTCLDY    63  59  87 SE12      29.77S
ELBOW LAKE     FAIR      66  63  89 CALM      29.76R
WADENA         PTCLDY    63  61  94 E9        29.77S
DETROIT LAKES  CLEAR     61  59  94 SW3       29.78R
MOORHEAD       CLEAR     63  59  88 CALM      29.74S
FERGUS FALLS   PTCLDY    64  61  88 CALM      29.72S
MORRIS MN      MOCLDY    72  55  56 SW7       29.76R
STAPLES        PTCLDY    61  57  88 E8        29.80R
$$
  *****  WEATHER ELSEWHERE ACROSS MINNESOTA  *****

CITY           SKY/WX    TMP DP  RH WIND       PRES   REMARKS
DULUTH         CLOUDY    48  46  93 E15       29.88F
INTRNTL FALLS  LGT RAIN  59  53  80 E10       29.81S
ELY            CLOUDY    57  46  67 E7        29.88F
CLOQUET        CLOUDY    46  45  93 E8        29.87F FOG
WHEATON        CLOUDY    68  64  88 SE5       29.77R
BRAINERD       CLOUDY    57  54  89 SE10G18   29.82S
HIBBING        CLOUDY    54  52  93 SE6       29.86S
ALEXANDRIA     CLEAR     70  57  63 SW5       29.78R
SAINT CLOUD    CLOUDY    63  60  90 NW10G22   29.81R
MINNEAPOLIS    PTCLDY    72  62  71 E10       29.80S
$$

  *****  WEATHER ACROSS SOUTH DAKOTA  *****

CITY           SKY/WX    TMP DP  RH WIND       PRES   REMARKS
SIOUX FALLS    CLOUDY    68  60  75 NW6       29.80R
BROOKINGS      CLOUDY    70  60  70 W5        29.82R
WATERTOWN      TSTM      69  58  67 SW16      29.83R
HURON          CLOUDY    60  57  89 S13       29.78F
SISSETON         N/A     71  58  63 SW10      29.74R
ABERDEEN       MOCLDY    64  51  62 SW6       29.73R
MITCHELL       CLOUDY    71  61  70 N10       29.79S
PIERRE         CLEAR     64  51  62 NW12      29.79S
MOBRIDGE       CLEAR     63  50  62 W12       29.76R
RAPID CITY     PTCLDY    57  50  77 CALM      29.89R
$$

  *****  SOME WEATHER IN NEARBY STATES *****

CITY           SKY/WX    TMP DP  RH WIND       PRES   REMARKS
GLASGOW MT     CLEAR     59  46  62 N15       29.82R
GREAT FALLS MT CLOUDY    55  45  68 W12       29.89R
CHEYENNE WY    MOCLDY    57  35  43 N13G23    30.01R
SCOTTSBLUFF NE MOCLDY    65  43  44 SE10      29.92R
OMAHA NE       MOCLDY    75  66  73 SE7       29.81F
DES MOINES IA  CLOUDY    76  64  66 S6        29.85S
DAVENPORT IA   CLEAR     76  59  55 S6        29.89R
CHICAGO IL     CLOUDY    67  65  93 E7        29.93R
EAU CLAIRE WI  FOG       62  61  96 NE5       29.84S VSB 1/2
LA CROSSE WI   CLEAR     72  64  76 S3        29.83R
$$

  *****  SOME NATIONAL WEATHER *****

CITY           SKY/WX    TMP DP  RH WIND       PRES   REMARKS
LA GUARDIA NY  PTCLDY    82  51  34 SW10      30.04R
RALEIGH NC     PTCLDY    73  56  54 CALM      30.16R
ATLANTA GA     PTCLDY    78  56  46 S5        30.20R
NEW ORLEANS LA MOCLDY    79  72  79 S8        30.10S
OKLAHOMA CITY  PTCLDY    79  74  84 S14       29.86R
ALBUQUERQUE NM PTCLDY    77  14   9 SW13      29.95R
SALT LAKE CITY MOCLDY    62  42  47 N14       29.97F
LOS ANGELES CA PTCLDY    62  53  72 W13       30.07S
BOISE ID       SUNNY     69  37  30 NW7       29.96S
SEATTLE WA     PTSUNNY   61  48  62 SW12      30.18F
$$

*** WEATHER ACROSS MANITOBA...SASKATCHEWAN AND ONTARIO ***
                ***ONTARIO***

CITY           SKY/WX    TMP DP  RH WIND       PRES   REMARKS
GERALDTON      CLOUDY    64  45  48 E7        30.02R
THUNDER BAY    CLOUDY    52  46  82 VRB2      29.98F
SIOUX LOOKOUT  CLOUDY    59  54  82 E5        29.90F
TORONTO        MOCLDY    73  57  56 N7        30.04R
BIG TROUT LK   CLEAR     59  50  72 E5        29.97S
PICKLE LAKE    MOCLDY    64  48  55 SE7       29.97R
DRYDEN         CLOUDY    59  55  88 E10       29.87F
KENORA         LGT RAIN  59  57  94 E12       29.86F FOG
$$
                *** MANITOBA***

CITY           SKY/WX    TMP DP  RH WIND       PRES   REMARKS
BRANDON        LGT RAIN  55  55 100 NE13      29.79F
DAUPHIN        MOCLDY    59  55  88 E3        29.85S
ISLAND LAKE    NOT AVBL
PILOT MOUND      N/A     54  52  94 E14         N/A
THE PAS        PTCLDY    68  46  45 NE2       29.86F
THOMPSON       PTCLDY    66  46  48 S2        29.87S
WINNIPEG       LGT RAIN  57  55  94 E13       29.80F
LYNN LAKE      PTCLDY    64  46  52 SW3       29.84R
CHURCHILL      LGT RAIN  36  34  93 SE16G24   29.96S
GILLAM         PTCLDY    66  46  48 S5        29.90S
$$
                ***SASKATCHEWAN***

CITY           SKY/WX    TMP DP  RH WIND       PRES   REMARKS
ESTEVAN        LGT RAIN  55  54  94 NE10      29.78S
KINDERSLEY     PTCLDY    63  45  51 NE3       29.88S
LLOYDMINSTER   PTSUNNY   64  45  48 E7        29.88R
PRINCE ALBERT  PTCLDY    64  45  48 NW3       29.86F
REGINA         LGT RAIN  54  52  94 N8        29.85F
YORKTON        MOCLDY    55  54  94 NW6       29.85F
N. BATTLEFORD  CLEAR     63  48  59 SW2       29.90R
LA RONGE       PTCLDY    66  46  48 E5        29.87R
SASKATOON      MOCLDY    63  48  59 N8        29.87S
SWIFT CURRENT  MOCLDY    54  46  76 E12G17    29.86R
$$
NOTE: THESE ARE AUTOMATED STATIONS WITH LIMITED QUALITY CONTROL
      "FAIR" INDICATES FEW OR NO CLOUDS BELOW 12,000 FEET WITH NO
      SIGNIFICANT WEATHER AND/OR OBSTRUCTIONS TO VISIBILITY.
      SKY/WX - SKY CONDITION AND SIGNIFICANT WEATHER.
      TMP - AIR TEMPERATURE.    DP   - DEWPOINT TEMPERATURE.
      RH  - RELATIVE HUMIDITY.  PRES - PRESSURE.
      HX  - HEAT INDEX.         WCI  - WIND CHILL INDEX.
$




USA.gov is the U.S. government's official web portal to all federal, state and local government web resources and services.